Location: Bergfeld
(52.0500°N, 11.7833°E)
Time: 10:10:13
(UTC+00:00)

STARLINK-1185 - Pass Details

Date: 17 February 2020
Orbit: 379 x 380 km, 53.0° (Epoch: 30 March)

Event Time Altitude Azimuth Distance (km) Brightness Sun altitude
Exits shadow 03:32:57 20° 78° (ENE) 974 5.7 -27.0°
Drops below altitude 10° 03:34:02 10° 77° (ENE) 1,412 6.7 -26.8°
Enters shadow 04:28:56 -70° 265° (W) 12,416 10.5 -18.5°
Maximum altitude 05:06:49 73° 4° (N) 408 2.9 -12.6°
